When you browse on this site, cookies collect data to enhance your experience and personalize the content and advertising you see.
Visit our Privacy Policy to learn more. By continuing to use the site, you agree to this use of cookies and data.
  • In Deutschland
  • Länderverzeichnis
  • Für 7 Tage
  • Wassertemperatur
  • Wetterkarte
  • Widgets
  • user-avatar
    Anmelden

    Stündliche Wetter Nikolo-Pavlovskoe

    Heute, 17 Oktober, Donnerstag

    Zeit Temperatur Niederschläge Wind Luftdruck Luftfeuchtigkeit
    00:00 -1°C° 0 mm 3 m/S 745 mmHg 80%
    01:00 -1°C° 0 mm 3 m/S 746 mmHg 80%
    02:00 -1°C° 0 mm 3 m/S 746 mmHg 80%
    03:00 -2°C° 0 mm 3 m/S 747 mmHg 80%
    04:00 -1°C° 0 mm 3 m/S 747 mmHg 81%
    05:00 -1°C° 0 mm 3 m/S 747 mmHg 80%
    06:00 -2°C° 0 mm 3 m/S 748 mmHg 79%
    07:00 -2°C° 0 mm 3 m/S 748 mmHg 78%
    08:00 -1°C° 0 mm 3 m/S 748 mmHg 75%
    09:00 0°C° 0 mm 3 m/S 748 mmHg 71%
    10:00 0°C° 0 mm 3 m/S 748 mmHg 67%
    11:00 0°C° 0 mm 3 m/S 748 mmHg 67%
    12:00 0°C° 0 mm 3 m/S 748 mmHg 66%
    13:00 +1°C° 0 mm 3 m/S 748 mmHg 65%
    14:00 +1°C° 0 mm 3 m/S 748 mmHg 67%
    15:00 +1°C° 0 mm 2 m/S 748 mmHg 69%
    16:00 +1°C° 0 mm 2 m/S 748 mmHg 71%
    17:00 +1°C° 0 mm 2 m/S 747 mmHg 76%
    18:00 -1°C° 0 mm 2 m/S 747 mmHg 81%
    19:00 +1°C° 0 mm 1 m/S 747 mmHg 86%
    20:00 +1°C° 0.3 mm 1 m/S 746 mmHg 90%
    21:00 +1°C° 0.3 mm 1 m/S 746 mmHg 93%
    22:00 +1°C° 0.3 mm 1 m/S 746 mmHg 97%
    23:00 +1°C° 0.3 mm 1 m/S 745 mmHg 97%

    Morgen, 18 Oktober, Freitag

    Zeit Temperatur Niederschläge Wind Luftdruck Luftfeuchtigkeit
    00:00 -1°C° 0.3 mm 2 m/S 744 mmHg 97%
    01:00 -1°C° 0.3 mm 2 m/S 743 mmHg 97%
    02:00 -1°C° 0.5 mm 2 m/S 743 mmHg 97%
    03:00 -1°C° 0.5 mm 2 m/S 743 mmHg 97%
    04:00 -1°C° 0.5 mm 2 m/S 742 mmHg 97%
    05:00 -1°C° 0.3 mm 2 m/S 742 mmHg 97%
    06:00 -1°C° 0.3 mm 2 m/S 741 mmHg 97%
    07:00 -1°C° 0.3 mm 2 m/S 741 mmHg 97%
    08:00 -1°C° 0.3 mm 2 m/S 741 mmHg 96%
    09:00 0°C° 0.3 mm 3 m/S 741 mmHg 95%
    10:00 0°C° 0.3 mm 3 m/S 741 mmHg 94%
    11:00 0°C° 0.1 mm 3 m/S 741 mmHg 94%
    12:00 0°C° 0.1 mm 3 m/S 741 mmHg 95%
    13:00 0°C° 0.1 mm 3 m/S 741 mmHg 95%
    14:00 -1°C° 0.2 mm 4 m/S 742 mmHg 95%
    15:00 -2°C° 0.2 mm 4 m/S 742 mmHg 95%
    16:00 -2°C° 0.2 mm 4 m/S 743 mmHg 95%
    17:00 -2°C° 0.1 mm 4 m/S 743 mmHg 94%
    18:00 -3°C° 0.1 mm 4 m/S 744 mmHg 94%
    19:00 -3°C° 0.1 mm 4 m/S 744 mmHg 94%
    20:00 -3°C° 0 mm 4 m/S 745 mmHg 92%
    21:00 -4°C° 0 mm 4 m/S 745 mmHg 90%
    22:00 -4°C° 0 mm 4 m/S 746 mmHg 88%
    23:00 -5°C° 0 mm 4 m/S 746 mmHg 88%

    übermorgen, 19 Oktober, Samstag

    Zeit Temperatur Niederschläge Wind Luftdruck Luftfeuchtigkeit
    00:00 -6°C° 0 mm 3 m/S 747 mmHg 89%
    01:00 -6°C° 0 mm 3 m/S 747 mmHg 90%
    02:00 -7°C° 0 mm 3 m/S 747 mmHg 91%
    03:00 -6°C° 0 mm 2 m/S 748 mmHg 92%
    04:00 -7°C° 0 mm 2 m/S 749 mmHg 93%
    05:00 -7°C° 0 mm 2 m/S 749 mmHg 93%
    06:00 -7°C° 0 mm 2 m/S 749 mmHg 93%
    07:00 -7°C° 0 mm 2 m/S 750 mmHg 93%
    08:00 -6°C° 0 mm 2 m/S 750 mmHg 86%
    09:00 -5°C° 0 mm 2 m/S 751 mmHg 79%
    10:00 -4°C° 0 mm 3 m/S 751 mmHg 72%
    11:00 -4°C° 0 mm 3 m/S 751 mmHg 69%
    12:00 -2°C° 0 mm 2 m/S 752 mmHg 66%
    13:00 -1°C° 0 mm 2 m/S 752 mmHg 64%
    14:00 -2°C° 0 mm 2 m/S 752 mmHg 67%
    15:00 -2°C° 0 mm 2 m/S 752 mmHg 70%
    16:00 -1°C° 0 mm 1 m/S 752 mmHg 74%
    17:00 -2°C° 0 mm 1 m/S 752 mmHg 78%
    18:00 -3°C° 0 mm 1 m/S 752 mmHg 82%
    19:00 -4°C° 0 mm 1 m/S 753 mmHg 86%
    20:00 -4°C° 0 mm 1 m/S 753 mmHg 87%
    21:00 -4°C° 0 mm 1 m/S 753 mmHg 88%
    22:00 -6°C° 0 mm 1 m/S 754 mmHg 89%
    23:00 -6°C° 0 mm 1 m/S 754 mmHg 90%

    20 Oktober, Sonntag

    Zeit Temperatur Niederschläge Wind Luftdruck Luftfeuchtigkeit
    00:00 -6°C° 0 mm 1 m/S 753 mmHg 91%
    01:00 -6°C° 0 mm 1 m/S 753 mmHg 93%
    02:00 -6°C° 0 mm 1 m/S 753 mmHg 93%
    03:00 -6°C° 0 mm 1 m/S 754 mmHg 93%
    04:00 -6°C° 0 mm 1 m/S 754 mmHg 94%
    05:00 -6°C° 0 mm 1 m/S 754 mmHg 94%
    06:00 -6°C° 0 mm 1 m/S 754 mmHg 94%
    07:00 -6°C° 0 mm 1 m/S 753 mmHg 94%
    08:00 -6°C° 0 mm 2 m/S 753 mmHg 87%
    09:00 -4°C° 0 mm 2 m/S 753 mmHg 81%
    10:00 -3°C° 0 mm 2 m/S 753 mmHg 75%
    11:00 -2°C° 0 mm 3 m/S 753 mmHg 75%
    12:00 -1°C° 0 mm 3 m/S 752 mmHg 75%
    13:00 0°C° 0 mm 3 m/S 752 mmHg 75%
    14:00 +1°C° 0 mm 2 m/S 752 mmHg 78%
    15:00 +1°C° 0 mm 2 m/S 752 mmHg 81%
    16:00 +2°C° 0 mm 2 m/S 751 mmHg 85%
    17:00 +1°C° 0 mm 2 m/S 751 mmHg 87%
    18:00 +1°C° 0 mm 2 m/S 751 mmHg 89%
    19:00 0°C° 0 mm 3 m/S 751 mmHg 91%
    20:00 0°C° 0 mm 3 m/S 750 mmHg 91%
    21:00 +1°C° 0 mm 3 m/S 750 mmHg 90%
    22:00 +1°C° 0 mm 3 m/S 750 mmHg 90%
    23:00 0°C° 0 mm 4 m/S 749 mmHg 89%

    21 Oktober, Montag

    Zeit Temperatur Niederschläge Wind Luftdruck Luftfeuchtigkeit
    00:00 0°C° 0 mm 4 m/S 749 mmHg 89%
    01:00 0°C° 0 mm 4 m/S 748 mmHg 88%
    02:00 0°C° 0 mm 4 m/S 748 mmHg 88%
    03:00 +1°C° 0 mm 4 m/S 747 mmHg 87%
    04:00 +1°C° 0 mm 5 m/S 746 mmHg 86%
    05:00 +1°C° 0.1 mm 5 m/S 746 mmHg 87%
    06:00 +1°C° 0.1 mm 5 m/S 745 mmHg 88%
    07:00 +1°C° 0.1 mm 5 m/S 745 mmHg 89%
    08:00 +2°C° 0.2 mm 5 m/S 744 mmHg 89%
    09:00 +2°C° 0.2 mm 5 m/S 744 mmHg 90%
    10:00 +3°C° 0.2 mm 5 m/S 744 mmHg 91%
    11:00 +3°C° 0.1 mm 5 m/S 744 mmHg 92%
    12:00 +4°C° 0.1 mm 4 m/S 744 mmHg 92%
    13:00 +4°C° 0.1 mm 4 m/S 744 mmHg 93%
    14:00 +4°C° 0.3 mm 4 m/S 743 mmHg 94%
    15:00 +4°C° 0.3 mm 3 m/S 743 mmHg 95%
    16:00 +4°C° 0.3 mm 3 m/S 743 mmHg 95%
    17:00 +4°C° 0.3 mm 3 m/S 743 mmHg 96%
    18:00 +4°C° 0.3 mm 3 m/S 743 mmHg 96%
    19:00 +4°C° 0.3 mm 3 m/S 743 mmHg 96%
    20:00 +4°C° 0.2 mm 3 m/S 742 mmHg 96%
    21:00 +5°C° 0.2 mm 2 m/S 742 mmHg 97%
    22:00 +5°C° 0.2 mm 2 m/S 742 mmHg 97%
    23:00 +4°C° 0.5 mm 3 m/S 741 mmHg 97%

    22 Oktober, Dienstag

    Zeit Temperatur Niederschläge Wind Luftdruck Luftfeuchtigkeit
    00:00 +5°C° 0.5 mm 3 m/S 740 mmHg 96%
    01:00 +5°C° 0.5 mm 3 m/S 739 mmHg 96%
    02:00 +5°C° 1.2 mm 3 m/S 738 mmHg 95%
    03:00 +6°C° 1.2 mm 4 m/S 737 mmHg 95%
    04:00 +6°C° 1.2 mm 4 m/S 736 mmHg 94%
    05:00 +7°C° 1.4 mm 5 m/S 736 mmHg 93%
    06:00 +7°C° 1.4 mm 5 m/S 735 mmHg 92%
    07:00 +8°C° 1.4 mm 6 m/S 735 mmHg 90%
    08:00 +8°C° 0.1 mm 6 m/S 735 mmHg 89%
    09:00 +8°C° 0.1 mm 5 m/S 735 mmHg 88%
    10:00 +8°C° 0.1 mm 5 m/S 735 mmHg 87%
    11:00 +8°C° 0 mm 5 m/S 735 mmHg 84%
    12:00 +9°C° 0 mm 5 m/S 736 mmHg 81%
    13:00 +9°C° 0 mm 5 m/S 736 mmHg 77%
    14:00 +8°C° 0 mm 5 m/S 736 mmHg 80%
    15:00 +7°C° 0 mm 4 m/S 737 mmHg 83%
    16:00 +8°C° 0 mm 3 m/S 737 mmHg 85%
    17:00 +7°C° 0 mm 3 m/S 737 mmHg 86%
    18:00 +5°C° 0 mm 3 m/S 738 mmHg 88%
    19:00 +5°C° 0 mm 2 m/S 738 mmHg 89%
    20:00 +5°C° 0 mm 2 m/S 738 mmHg 90%
    21:00 +4°C° 0 mm 2 m/S 738 mmHg 92%
    22:00 +3°C° 0 mm 2 m/S 738 mmHg 94%
    23:00 +3°C° 0 mm 2 m/S 738 mmHg 94%
    Mehr zeigen